COSMOS 1275 DEB

Satellite information

Favourite Embed

Satellite Type and Status

DEBRISIN ORBIT

Key statistics

Satellite COSMOS 1275 DEB at a glance.

Uptime

16043

Days in orbit

Revolutions

≈ 14.4

Per day

Orbit

LEO

Low Earth Orbit

Inclination

83.2

Latest

Satellite identification and parameters

Extended collection of information and parameters for COSMOS 1275 DEB.

Object identification

Identified? True

Debris? True

Object name: COSMOS 1275 DEB

International designator: 1981-053KP

Object number (NORAD): 17620

Object ID (CCSDS): 17620

Country: COMMONWEALTH OF INDEPENDENT STATES (CIS)

Current information (Y/N): Y

RCS size: SMALL

Orbital parameters

Period: 100.183 minutes

Inclination: 83.1719 deg

SMA: 7145.337 km

Apoapsis: 784.298 km

Periapsis: 750.106 km

RAAN: 70.6516 deg

Eccentricy: 0.0023926

Argument of periapsis: 83.9474 deg

Mean anomaly: 276.4443 deg

Mean motion: 14.37370334 rev/day

Mean motion (dot): 0.00008573 rev/day2

B* drag term: 0.0028548 1/REarth

Two-line elements (TLE)

Creation date: May 6, 2025, 3:54 a.m.

Reference frame: TEME

Reference center: EARTH

Epoch: May 5, 2025, 6:34 a.m. UTC

TLE line 0: 0 COSMOS 1275 DEB

TLE line 1: 1 17620U 81053KP 25125.27368010 .00008573 00000-0 28548-2 0 9997

TLE line 2: 2 17620 83.1719 70.6516 0023926 83.9474 276.4443 14.37370334 54968

Live tracking on map

Real-time ground track for satellite COSMOS 1275 DEB.

In-orbit conjunctions

A list of the most updated potential collisions computed for object COSMOS 1275 DEB.

Target Orbit TCA Probability of collision Miss distance Type
NOAA 11 DEB SSO 2025-03-13 13:41:43 0.0003805632 163.0 (m) DEBRIS
CZ-6A DEB LEO 2025-01-26 21:46:11 0.0002352172 437.0 (m) DEBRIS
CZ-4 DEB SSO 2024-12-14 06:18:13 0.0001069684 45.0 (m) DEBRIS
FENGYUN 1C DEB SSO 2024-11-16 00:39:06 0.0006751403 385.0 (m) DEBRIS

Associated space launch

Navigation satellite providing location information for the Tsiklon-B navigation system

COSMOS 1275 DEB was lifted into orbit during the mission ‘Kosmos-3M | Parus 27’, on board a Kosmos-3M space rocket.

The launch took place on June 4, 1981, 3:41 p.m. from 132/2.

For more information about the launch, click the button.

Launch to space Kosmos-3M | Parus 27
Kosmos-3M | Parus 27

Agency: N/A

Status: Launch Successful

Launch date: June 4, 1981, 3:41 p.m. UTC

Rocket: Kosmos-3M

Launch pad: 132/2

Location: Plesetsk Cosmodrome, Russian Federation

...

Latest news about this satellite

There are no fresh news available about this satellite. Check back as we update our databases every day.


Newsletter sign-up

Weekly statistics, charts and insights to help you stay on top of the space industry.